AO-07 1 07530U 74089B 20226.20693671 -.00000031 00000-0 90672-4 0 9992 2 07530 101.8041 195.6409 0011768 255.0996 116.4662 12.53644587 93345 UO-11 1 14781U 84021B 20226.76894014 .00000044 00000-0 11512-4 0 9999 2 14781 97.5901 235.8912 0008982 23.0176 337.1440 14.83183928961320 LO-19 1 20442U 90005G 20226.55982517 -.00000018 00000-0 98855-5 0 9990 2 20442 98.6951 174.0129 0011641 352.7510 7.3504 14.32958243596798 HUBBLE 1 20580U 90037B 20226.28115193 .00000369 00000-0 11425-4 0 9991 2 20580 028.4700 303.7973 0002684 348.8285 053.9591 15.09416841464564 MET-2/21 1 22782U 93055A 20226.19923505 .00000057 00000-0 38104-4 0 9991 2 22782 82.5501 188.5522 0023889 76.7487 294.4373 13.83827285361160 AO-27 1 22825U 93061C 20226.25452349 -.00000008 00000-0 14907-4 0 9998 2 22825 098.9246 230.1391 0007877 205.2384 154.8414 14.30090319401935 IO-26 1 22826U 93061D 20226.71726524 -.00000006 00000-0 15744-4 0 9997 2 22826 98.9187 230.5542 0008643 191.7366 168.3615 14.30426494402484 FO-29 1 24278U 96046B 20226.32588608 -.00000014 00000-0 23377-4 0 9992 2 24278 98.5876 328.7246 0349567 227.4713 129.6418 13.53099029184825 NOAA-15 1 25338U 98030A 20226.40981189 .00000040 00000-0 35409-4 0 9992 2 25338 98.7144 251.1626 0011590 96.9615 263.2883 14.25984904157350 GO-32 1 25397U 98043D 20226.79361065 -.00000028 00000-0 72544-5 0 9997 2 25397 98.7303 167.8631 0000298 198.7841 161.3327 14.23688725147930 ISS 1 25544U 98067A 20226.84437500 .00000002 00000-0 81434-5 0 9990 2 25544 51.6464 63.1126 0001486 35.2241 142.7841 15.49159299240954 NO-44 1 26931U 01043C 20226.70720634 -.00000034 00000-0 18722-4 0 9992 2 26931 67.0530 354.6442 0006093 274.9265 85.1141 14.30584355985331 SO-50 1 27607U 02058C 20226.63406435 -.00000037 00000-0 15153-4 0 9990 2 27607 64.5543 199.5421 0040800 159.3583 200.9180 14.75651410949295 CO-55 1 27844U 03031E 20225.99450307 .00000033 00000-0 34354-4 0 9999 2 27844 98.6820 232.8755 0008685 249.7808 110.2436 14.22250634888175 CO-57 1 27848U 03031J 20226.53020435 .00000028 00000-0 32752-4 0 9993 2 27848 98.6886 233.9647 0008535 262.0772 97.9437 14.21836136888083 RS-22 1 27939U 03042A 20226.68535026 .00000097 00000-0 26112-4 0 9998 2 27939 98.0986 0.7703 0013354 167.5399 192.6139 14.66877720902409 NOAA-18 1 28654U 05018A 20226.39730102 .00000047 00000-0 50232-4 0 9993 2 28654 99.0396 283.3459 0015233 72.8312 287.4526 14.12531758785049 CO-58 1 28895U 05043F 20225.80864933 .00000083 00000-0 24892-4 0 9996 2 28895 98.0172 0.6089 0018190 102.5531 257.7708 14.63789771789081 Falconsat-3 1 30776U 07006E 20226.41992851 .00001889 00000-0 50699-4 0 9996 2 30776 35.4340 275.4913 0002847 327.9206 32.1348 15.38030095745613 CO-65 1 32785U 08021C 20226.74092715 .00000141 00000-0 20801-4 0 9994 2 32785 97.5763 212.2480 0011739 308.1551 51.8608 14.88499359666463 AAUSAT2 1 32788U 08021F 20226.80919839 .00000485 00000-0 49196-4 0 9998 2 32788 97.4920 228.7614 0010643 216.7958 143.2534 14.95113620667983 DO-64 1 32789U 08021G 20226.14221449 .00001089 00000-0 74901-4 0 9992 2 32789 097.4144 266.9530 0013588 118.3134 241.9467 15.07848206670352 CO-66 1 32791U 08021J 20226.70978620 .00000242 00000-0 29787-4 0 9999 2 32791 97.5433 218.3396 0011605 272.6269 87.3622 14.91088507666991 RS-30 1 32953U 08025A 20226.62060685 .00000037 00000-0 19437-3 0 9999 2 32953 82.5004 242.3495 0018011 290.6102 69.3047 12.43097751554735 PRISM 1 33493U 09002B 20225.99926585 .00000933 00000-0 86333-4 0 9999 2 33493 98.1469 168.6466 0013559 223.7441 136.2706 14.97100327628177 NOAA-19 1 33591U 09005A 20226.26344868 .00000022 00000-0 37193-4 0 9999 2 33591 99.1959 233.0896 0012946 277.3261 82.6439 14.12426619593416 TISAT-1 1 36799U 10035E 20226.13039701 .00000108 00000-0 17003-4 0 9993 2 36799 98.1988 38.5957 0013130 139.5379 220.6817 14.91399427547574 JUGNU 1 37839U 11058B 20226.55990530 .00000316 00000-0 26688-4 0 9997 2 37839 19.9614 296.4535 0018817 298.4659 87.9891 14.12685371456986 SRMSAT 1 37841U 11058D 20226.74199564 .00000325 00000-0 33639-4 0 9993 2 37841 19.9735 0.8603 0011802 152.8588 345.1812 14.10666179456353 AO-71 1 37854U 11061E 20226.58262520 .00000692 00000-0 42725-4 0 9999 2 37854 101.7043 347.3175 0157921 251.8087 106.5879 15.07383972480532 HRBE 1 37855U 11061F 20226.16681313 .00000523 00000-0 33931-4 0 9991 2 37855 101.7168 343.8172 0170455 266.5480 91.6223 15.06407277480212 HORYU-2 1 38340U 12025D 20226.70241051 .00000107 00000-0 23518-4 0 9991 2 38340 98.2764 281.6125 0010760 212.5806 147.4740 14.75877164443401 RS-40 1 38735U 12041C 20226.77823717 .00000037 00000-0 19466-3 0 9997 2 38735 82.4800 324.9198 0017362 40.0081 320.2277 12.42580640364972 BEESAT-3 1 39135U 13015F 20226.41772921 .00000518 00000-0 34719-4 0 9998 2 39135 64.8665 117.4326 0035071 233.5759 126.2132 15.18272656404257 BEESAT-2 1 39136U 13015G 20226.09290912 .00000682 00000-0 43275-4 0 9997 2 39136 064.8724 123.6497 0033639 273.6186 086.1094 15.17668868403713 ZACUBE-1 1 39417U 13066B 20226.24246834 .00000165 00000-0 26887-4 0 9992 2 39417 097.5670 221.1114 0060440 091.6167 269.1971 14.81301813363441 TRITON-1 1 39427U 13066M 20226.80079938 .00000117 00000-0 26918-4 0 9996 2 39427 97.7299 184.5601 0112130 254.5202 104.3598 14.68031046360263 GOMX-1 1 39430U 13066Q 20226.84870796 .00000185 00000-0 42484-4 0 9996 2 39430 97.7929 161.9138 0151271 4.3446 355.9038 14.59423153358175 LO-74 1 39440U 13066AA 20226.50185760 .00000141 00000-0 26380-4 0 9999 2 39440 97.6348 205.8642 0080668 153.9762 206.5539 14.76037006362192 AO-73 1 39444U 13066AE 20226.74754363 .00000200 00000-0 30619-4 0 9996 2 39444 97.5609 223.8499 0059562 82.1557 278.6413 14.82160818362443 SPROUT 1 39770U 14029E 20226.71766382 .00000288 00000-0 37556-4 0 9992 2 39770 97.9022 332.7681 0009979 134.3529 225.8505 14.87813712337572 DUCHIFAT-1 1 40021U 14033M 20226.79579531 .00000155 00000-0 21554-4 0 9998 2 40021 97.9427 158.3875 0014369 96.9857 263.2995 14.90947378334436 NANOSATCBR1 1 40024U 14033Q 20226.78361798 .00000150 00000-0 21372-4 0 9997 2 40024 97.9267 154.5686 0013641 101.3116 258.9635 14.90111100334292 DTUSAT-2 1 40030U 14033W 20226.48156932 .00000164 00000-0 23499-4 0 9990 2 40030 97.9011 148.1255 0013274 105.5205 254.7478 14.88742424334008 EO-80 1 40032U 14033Y 20226.03189646 .00000143 00000-0 21275-4 0 9998 2 40032 97.9019 147.6796 0013218 107.6063 252.6599 14.88692252333929 ANTELSAT 1 40034U 14033AA 20226.14215104 .00000146 00000-0 28873-4 0 9995 2 40034 097.7091 079.1029 0058605 174.1071 186.0841 14.74282575330233 VELOX-1 1 40057U 14034E 20226.84661271 .00000235 00000-0 40345-4 0 9995 2 40057 98.2876 5.4095 0010103 327.8413 32.2175 14.77905879330119 DAURIA DX 1 1 40071U 14037C 20226.79531749 .00000074 00000-0 17015-4 0 9993 2 40071 98.4620 48.3735 0007620 320.6064 39.4592 14.81382026329741 HODOYOSHI-1 1 40299U 14070B 20226.78430094 .00000481 00000-0 22617-4 0 9998 2 40299 97.3195 302.1848 0012914 1.3547 147.6885 15.24130448320548 CHUBUSAT-1 1 40300U 14070C 20226.79535162 .00000491 00000-0 23997-4 0 9997 2 40300 97.2834 294.2333 0020239 15.6474 123.7761 15.22577773320234 QSAT-EOS 1 40301U 14070D 20226.80217235 .00001313 00000-0 51753-4 0 9993 2 40301 97.2896 299.9313 0024562 349.0712 151.1019 15.27107739320681 FIREBIRD FU3 1 40377U 15003B 20226.72670574 .00002244 00000-0 88323-4 0 9990 2 40377 99.0911 298.6442 0124279 122.6188 238.7109 15.20255798306014 FIREBIRD FU4 1 40378U 15003C 20226.77615362 .00002217 00000-0 87208-4 0 9991 2 40378 99.0914 298.8064 0124447 122.3165 239.0189 15.20274735306024 GRIFEX 1 40379U 15003D 20226.75344518 .00001485 00000-0 65297-4 0 9992 2 40379 99.0978 290.3625 0133180 148.3301 212.6028 15.16540023305534 NO-84 1 40654U 15025D 20226.20573908 .00006497 00000-0 77984-4 0 62 2 40654 54.9865 38.8249 0112261 337.4960 22.1137 15.55167733177854 DEORBITSAIL 1 40719U 15032E 20226.20362475 .00000249 00000-0 42416-4 0 9999 2 40719 097.8631 113.4287 0017307 028.9789 331.2379 14.77043402274478 NUDT-PHONESAT 1 40900U 15049B 20226.83881022 .00001788 00000-0 75952-4 0 9992 2 40900 97.4308 237.2986 0013720 136.7638 347.7901 15.24303142271938 XW-2A 1 40903U 15049E 20226.77084961 .00001787 00000-0 41982-4 0 9990 2 40903 97.2831 275.7538 0014605 58.9308 77.9595 15.43280520275314 XW-2C 1 40906U 15049H 20226.87010512 .00000674 00000-0 38373-4 0 9999 2 40906 97.4785 227.3766 0014959 168.4510 309.9117 15.16134748270950 XW-2D 1 40907U 15049J 20226.85514069 .00000622 00000-0 35409-4 0 9994 2 40907 97.4763 227.0757 0014158 165.5935 314.1687 15.16374795270974 LILACSAT-2 1 40908U 15049K 20226.86611389 .00000398 00000-0 25432-4 0 9994 2 40908 97.4927 225.3619 0015930 177.2542 228.8687 15.14078870270680 XW-2E 1 40909U 15049L 20226.81515223 .00000929 00000-0 48203-4 0 9991 2 40909 97.4648 230.6119 0013935 155.7551 328.6035 15.18530014271234 XW-2F 1 40910U 15049M 20226.78393694 .00000744 00000-0 39795-4 0 9996 2 40910 97.4683 229.6665 0015091 155.5863 327.1215 15.18037254271038 XW-2B 1 40911U 15049N 20226.84222546 .00000339 00000-0 20897-4 0 9994 2 40911 97.4778 227.7623 0014272 166.0774 315.3632 15.16297346270865 DCBB 1 40912U 15049P 20226.81987648 .00000965 00000-0 47277-4 0 9999 2 40912 97.4486 233.9073 0015900 133.3155 351.4511 15.20444379271435 TW-1C 1 40926U 15051B 20226.73401898 .00022396 00000-0 20285-3 0 9997 2 40926 97.0784 278.9510 0004876 210.0893 297.8315 15.68053508275996 TW-1A 1 40928U 15051D 20226.79846152 .00002621 00000-0 61509-4 0 9995 2 40928 97.1072 253.2309 0009874 348.6243 65.9686 15.42891904274212 IO-86 1 40931U 15052B 20225.61146192 .00000704 00000-0 89553-5 0 9997 2 40931 6.0007 294.9261 0013617 355.5939 4.3942 14.76641537263571 LQSat 1 40958U 15057A 20226.17437269 -.00000016 00000-0 50578-5 0 9993 2 40958 97.8486 287.6894 0017354 331.8841 28.1428 14.73126986260855 ATHENOXAT-1 1 41168U 15077C 20226.73496833 .00001709 00000-0 53500-4 0 9999 2 41168 14.9893 1.1103 0011242 206.4029 153.5719 15.14478509258049 ChubuSat-2 1 41338U 16012B 20226.05326509 .00000257 00000-0 13216-4 0 9992 2 41338 031.0045 346.6379 0013904 317.2580 042.6973 15.00315124246246 ChubuSat-3 1 41339U 16012C 20226.70698037 .00000219 00000-0 10168-4 0 9994 2 41339 31.0127 340.0488 0013862 330.7584 29.2275 15.00477869246346 Horyu-4 1 41340U 16012D 20226.00453990 .00000368 00000-0 21113-4 0 9993 2 41340 031.0062 331.6432 0014047 349.7085 010.3262 15.01533653246389 OUFTI-1 1 41458U 16025C 20226.25583116 .00001044 00000-0 55743-4 0 9996 2 41458 098.1099 339.8542 0163368 018.9454 341.7754 15.07021547236039 e-st@r-II 1 41459U 16025D 20226.58383494 .00001188 00000-0 63386-4 0 9991 2 41459 98.1088 339.5678 0164500 19.9820 340.7751 15.06575191236047 AAUSAT4 1 41460U 16025E 20226.83134738 .00001260 00000-0 64911-4 0 9992 2 41460 98.1049 342.3632 0153500 7.2508 353.0869 15.08942533236293 LO-87 1 41557U 16033B 20226.80847353 .00000984 00000-0 38573-4 0 9996 2 41557 97.4037 316.6644 0012007 241.4361 118.5671 15.28133246234536 NuSat2 1 41558U 16033C 20226.37229830 .00001116 00000-0 40851-4 0 9993 2 41558 97.4096 318.7484 0011072 239.0643 120.9510 15.30130035234595 Lapan A3 1 41603U 16040E 20226.81248890 .00000057 00000-0 57593-5 0 9993 2 41603 97.3039 278.5457 0013695 8.7093 57.0748 15.19858676229859 Swayam 1 41607U 16040J 20226.70630761 .00001156 00000-0 49993-4 0 9992 2 41607 97.3133 284.7170 0012641 352.9516 7.1542 15.24379723230142 Pratham 1 41783U 16059A 20226.64705629 .00000011 00000-0 11269-4 0 9990 2 41783 98.0120 280.4848 0034602 134.5974 225.8061 14.63068133207241 AlSat 1N 1 41789U 16059G 20226.68344290 .00000057 00000-0 19685-4 0 9993 2 41789 98.0158 283.4731 0029562 121.7410 238.6679 14.64335156207402 ScatSat 1 41790U 16059H 20226.84278074 -.00000003 00000-0 99830-5 0 9992 2 41790 98.1566 265.4089 0006979 101.1602 259.0369 14.50925006205546 TY-1 1 41844U 16066D 20226.80170155 .00000689 00000-0 30479-4 0 9999 2 41844 97.4031 234.3286 0015949 137.0260 35.9455 15.24931383209003 Pegasus-1 1 41846U 16066F 20226.70303551 .00000137 00000-0 30367-4 0 9992 2 41846 98.6572 277.3414 0367722 62.8309 300.9865 14.37802038197199 CAS-2T 1 41847U 16066G 20226.40031308 .00000019 00000-0 12551-4 0 9992 2 41847 98.6495 277.4730 0366563 59.3464 304.3322 14.38084335197606 EO-88 1 42017U 17008BX 20226.70763546 .00001247 00000-0 50298-4 0 9992 2 42017 97.3563 293.4280 0007801 114.2651 245.9404 15.26637558194283 CAS-4B 1 42759U 17034B 20226.77881711 .00000119 00000-0 20686-4 0 9991 2 42759 43.0197 72.0855 0010424 24.9471 75.9374 15.09860072174632 CAS-4A 1 42761U 17034D 20226.86854167 .00000052 00000-0 16652-4 0 9993 2 42761 43.0203 70.8528 0011047 27.0495 161.4944 15.09938464174644 UCLSat 1 42765U 17036A 20226.09925635 .00000978 00000-0 43649-4 0 9996 2 42765 097.2965 278.8089 0011249 177.7271 182.4020 15.23633127175200 NIUSat 1 42766U 17036B 20226.15004568 .00000739 00000-0 35457-4 0 9990 2 42766 97.2959 276.1733 0015553 174.5084 185.6326 15.21805962174311 LituanicaSAT 2 1 42768U 17036D 20226.71119999 .00001660 00000-0 70711-4 0 9995 2 42768 97.3022 279.4691 0014989 167.4135 192.7480 15.24256976174569 Aalto 1 1 42775U 17036L 20226.39258262 .00000611 00000-0 29747-4 0 9992 2 42775 97.2939 276.7490 0013993 172.3185 187.8269 15.21913931174337 URSA MAIOR 1 42776U 17036M 20226.70363960 .00000653 00000-0 31417-4 0 9993 2 42776 97.2951 277.3602 0013847 170.8674 189.2817 15.22103582174393 Max Valier Sat 1 42778U 17036P 20226.18720717 .00000729 00000-0 34179-4 0 9996 2 42778 097.3006 278.2425 0012333 174.5054 185.6320 15.22705210174364 Pegasus 1 42784U 17036V 20226.13616520 .00000892 00000-0 40448-4 0 9991 2 42784 97.2969 278.5114 0011790 179.1570 180.9689 15.23318381174407 NUDATSat 1 42787U 17036Y 20226.40609388 .00001475 00000-0 62466-4 0 9990 2 42787 97.3012 280.3035 0010546 173.3990 186.7391 15.24678763174377 SUCHAI 1 1 42788U 17036Z 20226.13961341 .00001090 00000-0 47984-4 0 9992 2 42788 097.2977 279.1564 0011399 176.9550 183.1759 15.23887954174516 SKCUBE 1 42789U 17036AA 20226.19171641 .00000991 00000-0 44083-4 0 9991 2 42789 097.2972 279.0420 0011274 177.0532 183.0774 15.23721425174433 VZLUSAT 1 1 42790U 17036AB 20226.13311121 .00001381 00000-0 58654-4 0 9999 2 42790 097.2998 280.0316 0010869 174.2962 185.8402 15.24663108174481 VENTA 1 1 42791U 17036AC 20226.10079726 .00000921 00000-0 41214-4 0 9992 2 42791 097.2970 278.9928 0010893 177.6413 182.4878 15.23700195174412 Robusta 1B 1 42792U 17036AD 20226.13841231 .00001077 00000-0 47399-4 0 9997 2 42792 97.2975 279.2594 0010846 177.2176 182.9124 15.23916299174458 D-SAT 1 42794U 17036AF 20226.81076407 .00000007 00000-0 59559-5 0 9993 2 42794 97.4904 256.6188 0126362 172.8256 187.4811 14.91302511171240 TechnoSat 1 42829U 17042E 20226.65849596 .00000025 00000-0 78168-5 0 9995 2 42829 97.5121 105.7285 0015823 93.6513 266.6516 14.91119694167816 QIKCOM-1 1 42983U 98067NF 20226.76904561 .00003632 00000-0 46812-4 0 9995 2 42983 51.6394 16.4961 0003152 274.1227 85.9407 15.61962153159242 AO-91 1 43017U 17073E 20226.01714584 .00000191 00000-0 20783-4 0 9990 2 43017 97.7190 136.0689 0255682 225.8457 132.1482 14.78989907147526 EcAMSat 1 43019U 98067NG 20226.66298511 .00007689 00000-0 75817-4 0 9999 2 43019 51.6413 0.8738 0003171 266.0456 94.0178 15.67054876241764 PICSAT 1 43132U 18004X 20226.74807620 .00001054 00000-0 45726-4 0 9990 2 43132 97.4441 297.7327 0008806 202.6867 157.3982 15.24536270143787 AO-92 1 43137U 18004AC 20226.73230431 .00000779 00000-0 34872-4 0 9997 2 43137 97.4425 297.4991 0008359 204.8183 155.2654 15.24216270143762 TianYi 2 1 43155U 18008A 20226.80963955 .00000834 00000-0 52617-4 0 9992 2 43155 97.4435 294.4305 0016319 314.2744 178.2854 15.11703144141585 Zhou Enlai 1 43156U 18008B 20226.79223858 .00000819 00000-0 52415-4 0 9991 2 43156 97.4477 294.2587 0013298 314.0930 185.7881 15.11255666141539 TianYi 6 1 43158U 18008D 20226.69855105 .00000291 00000-0 21309-4 0 9990 2 43158 97.4407 293.1527 0012945 312.7110 204.2788 15.10781229141462 S-Net G 1 43186U 18014G 20226.73869918 .00000051 00000-0 94826-5 0 9999 2 43186 97.6888 133.6371 0011814 38.4103 321.7958 14.96829712138262 S-Net H 1 43187U 18014H 20226.20373592 .00000002 00000-0 52248-5 0 9998 2 43187 097.6887 133.0878 0011854 039.9199 320.2892 14.96829322138182 S-Net J 1 43188U 18014J 20226.73840635 .00000038 00000-0 83816-5 0 9998 2 43188 97.6889 133.6454 0011804 38.4138 321.7922 14.96829253138265 S-Net K 1 43189U 18014K 20226.20405755 .00000016 00000-0 64552-5 0 9993 2 43189 097.6886 133.0831 0011843 039.9201 320.2889 14.96828533136732 FMN 1 1 43192U 18015A 20226.72187330 .00001775 00000-0 72185-4 0 9994 2 43192 97.4502 355.9635 0014222 245.4334 231.9315 15.25793269140637 Shaonian Xing 1 43199U 18015H 20226.84769660 .00001240 00000-0 51115-4 0 9993 2 43199 97.4290 354.2079 0015259 255.4854 255.8404 15.25904308140712 UBAKUSAT 1 43467U 98067NQ 20226.58022709 .00030864 00000-0 17737-3 0 9998 2 43467 51.6356 347.1379 0001922 309.8979 50.1853 15.78465075129120 EnduroSat One 1 43551U 98067NZ 20226.69754579 .00075656 00000-0 26991-3 0 9991 2 43551 51.6319 340.2898 0005739 329.6652 30.4020 15.88171470119457 EQUISat 1 43552U 98067PA 20226.43427855 .00029867 00000-0 18043-3 0 9990 2 43552 51.6317 355.2716 0004858 319.7143 40.3497 15.77349898119195 UiTMSat 1 1 43589U 98067PD 20226.08128250 .00049716 00000-0 24635-3 0 9997 2 43589 51.6340 353.4601 0004558 332.4204 27.6556 15.81485351114921 Maya 1 1 43590U 98067PE 20226.07410317 .00050776 00000-0 25142-3 0 9998 2 43590 51.6295 353.3773 0004549 327.5218 32.5504 15.81491937114858 Bhutan 1 1 43591U 98067PF 20226.60854306 .00047533 00000-0 23270-3 0 9995 2 43591 51.6359 350.3136 0004771 334.8409 25.2360 15.81765353114945 SiriusSat 1 1 43595U 98067PG 20226.39298212 .00035442 00000-0 20547-3 0 9993 2 43595 51.6289 357.8139 0002811 313.9210 46.1558 15.78193214114002 SiriusSat 2 1 43596U 98067PH 20226.39539954 .00036670 00000-0 21340-3 0 9991 2 43596 51.6283 358.6552 0002835 310.8469 49.2286 15.78090517113994 Tanusha-3 1 43597U 98067PJ 20226.81709501 .00209231 29410-4 40444-3 0 9997 2 43597 51.6244 336.2815 0009071 336.3543 23.7049 15.99876133114322 SurfSat 1 43614U 18070B 20226.61428291 .00002552 00000-0 65084-4 0 9990 2 43614 93.0239 178.2275 0017865 112.0959 248.2194 15.39428795107272 CP-7 DAVE 1 43615U 18070C 20226.58631742 .00002374 00000-0 60878-4 0 9992 2 43615 93.0242 178.2030 0018021 111.9111 248.4061 15.39270221107262 ELFIN-B 1 43616U 18070D 20226.38004461 .00003170 00000-0 77433-4 0 9993 2 43616 93.0202 178.0793 0018390 113.5145 246.8044 15.40722427107284 ELFIN-A 1 43617U 18070E 20226.14637878 .00003893 00000-0 94402-4 0 9999 2 43617 93.0253 178.5419 0017839 111.4362 248.8798 15.40935587107254 STARS-Me Mother 1 43640U 98067PQ 20226.65272776 .00012921 00000-0 12356-3 0 9996 2 43640 51.6354 17.7931 0003562 253.4784 106.5821 15.67095495105695 CubeBel 1 1 43666U 18083E 20226.85328567 .00000719 00000-0 38250-4 0 9990 2 43666 97.4859 252.7453 0015417 154.9334 19.4446 15.18353674 99328 Changshagaoxin 1 43669U 18083H 20226.85152778 .00000708 00000-0 38788-4 0 9996 2 43669 97.4744 250.7591 0011761 146.8443 206.7694 15.17365983 99224 Ten-Koh 1 43677U 18084G 20226.82868516 .00000043 00000-0 10364-4 0 9999 2 43677 97.8885 343.7719 0015289 333.8992 26.1453 14.90305304 97488 PO-101 1 43678U 18084H 20226.82905634 .00000251 00000-0 30658-4 0 9992 2 43678 97.8909 345.2510 0009761 356.2467 3.8695 14.91644852 97571 IRVINE 01 1 43693U 18088D 20226.52405715 .00001918 00000-0 79219-4 0 9992 2 43693 85.0340 39.2211 0020026 82.4053 277.9463 15.23090076 97532 QO-100 1 43700U 18090A 20226.12526212 .00000146 00000-0 00000 0 0 9995 2 43700 0.0100 118.9185 0002027 56.6021 217.4053 1.00274544 6523 Reaktor Hello World 1 43743U 18096AA 20226.74987467 .00000902 00000-0 36203-4 0 9998 2 43743 97.4183 300.3298 0016163 287.1476 72.7993 15.27521159 95146 MinXSS-2 1 43758U 18099A 20226.73225138 .00000315 00000-0 33431-4 0 9994 2 43758 97.7031 297.7306 0015428 3.6431 356.4899 14.95702364 92519 AO-95 1 43770U 18099N 20226.19905182 .00000319 00000-0 34332-4 0 9997 2 43770 097.7026 296.5824 0014714 013.8134 346.3486 14.95019487092392 RANGE-B 1 43772U 18099Q 20226.07812324 .00000665 00000-0 65576-4 0 9999 2 43772 097.7096 297.0381 0013938 002.0340 358.0935 14.95217974092379 RANGE-A 1 43773U 18099R 20226.32454792 .00000024 00000-0 74216-5 0 9990 2 43773 97.6967 296.3028 0013407 0.9350 359.1893 14.94989502 92406 MOVE-II 1 43780U 18099Y 20226.33286539 .00000448 00000-0 45614-4 0 9990 2 43780 97.7030 296.9631 0013523 11.4005 348.7520 14.95447520 92417 SNUSat 2 1 43782U 18099AA 20226.15020075 .00000572 00000-0 57120-4 0 9996 2 43782 97.7025 296.7665 0012579 2.0753 358.0518 14.95286493 92392 SnugLite 1 43784U 18099AC 20226.78396036 -.00000139 00000-0 -73649-5 0 9996 2 43784 97.6988 297.1994 0015118 5.8775 354.2621 14.95386604 92509 ITASat 1 1 43786U 18099AE 20226.25010476 -.00000214 00000-0 -14151-4 0 9997 2 43786 97.7042 297.0928 0015276 6.7645 353.3779 14.95354885 92421 EAGLET 1 1 43790U 18099AJ 20226.16080360 .00000327 00000-0 34521-4 0 9997 2 43790 97.7035 297.2849 0013781 12.8780 347.2790 14.95737365 92129 ESEO 1 43792U 18099AL 20226.17552777 -.00000378 00000-0 -28779-4 0 9992 2 43792 97.7006 297.0949 0013539 9.2254 350.9213 14.95614338 92186 CSIM 1 43793U 18099AM 20226.73743661 .00000597 00000-0 58167-4 0 9994 2 43793 97.7001 297.6668 0012694 5.1077 355.0272 14.96100154 92251 Astrocast 0.1 1 43798U 18099AS 20226.21112225 .00000509 00000-0 50606-4 0 9991 2 43798 097.7029 297.4446 0011982 352.7901 007.3146 14.95892816092433 JO-97 1 43803U 18099AX 20226.19091375 .00000048 00000-0 95564-5 0 9998 2 43803 097.7002 296.8402 0015153 007.2377 352.9060 14.95536743092415 Suomi 100 1 43804U 18099AY 20226.72745933 .00000138 00000-0 17644-4 0 9996 2 43804 97.6997 297.3533 0015159 5.6020 354.5368 14.95524088 92500 Al Farabi 2 1 43805U 18099AZ 20226.76382610 .00000221 00000-0 24991-4 0 9996 2 43805 97.7012 297.4893 0015290 6.0611 354.0792 14.95655892 92512 PWSat 2 1 43814U 18099BJ 20226.78628582 .00022479 00000-0 12066-2 0 9996 2 43814 97.7928 308.7875 0001133 335.3818 24.7359 15.14948781 92392 CHOMPTT 1 43855U 18104G 20226.79578314 .00000768 00000-0 30756-4 0 9991 2 43855 85.0395 137.2812 0016659 193.3745 166.7059 15.23055778 92255 ISAT 1 43879U 18111D 20226.80984189 .00000336 00000-0 34803-4 0 9996 2 43879 97.6970 133.3073 0014386 56.1336 304.1252 14.96273791 87053 UWE-4 1 43880U 18111E 20226.71394680 -.00000104 00000-0 -40862-5 0 9997 2 43880 97.6990 133.5133 0013815 57.4826 302.7728 14.96527334 87057 Sparrow 1 43881U 18111F 20226.69464557 .00000763 00000-0 71997-4 0 9997 2 43881 97.6994 133.5743 0013965 56.3919 303.8633 14.96567746 87054 Lume 1 1 43908U 18111AJ 20226.72173619 .00000841 00000-0 36230-4 0 9995 2 43908 97.2595 124.9566 0019748 303.7953 56.1404 15.25136340 90756 FO-98 1 43933U 19003B 20226.64879901 .00000566 00000-0 27471-4 0 9993 2 43933 97.2257 274.1841 0019020 44.7370 315.5396 15.22183162 87233 FO-99 1 43937U 19003F 20226.59909471 .00001004 00000-0 43330-4 0 9997 2 43937 97.2220 275.5415 0024647 26.6435 333.6063 15.24505509 87340 Delphini 1 1 44030U 98067PW 20226.14973790 .00019179 00000-0 17325-3 0 9991 2 44030 51.6344 26.4350 0003496 301.4701 58.5953 15.68143892 87405 MYSat 1 1 44045U 18092F 20226.15578345 .00001800 00000-0 59745-4 0 9990 2 44045 051.6392 126.9176 0011355 166.0909 194.0389 15.36913165084009 AstroCast 0.2 1 44083U 19018F 20226.63296215 .00000571 00000-0 28278-4 0 9998 2 44083 97.4170 286.8760 0012384 338.9124 21.1600 15.21674321 76076 AISTechSat 3 1 44103U 19018AB 20226.72588071 .00000680 00000-0 31663-4 0 9998 2 44103 97.4038 287.1728 0013449 352.9840 132.5555 15.23243272 76158 AISat 1 1 44104U 19018AC 20226.74833516 .00000617 00000-0 22158-4 0 9997 2 44104 97.4605 296.7733 0058290 11.1142 349.1371 15.31146466 76577 Raavana-1 1 44329U 98067QE 20226.77987520 .00009852 00000-0 13103-3 0 9994 2 44329 51.6397 46.5683 0005430 214.4883 145.5758 15.58869663 65945 Uguisu 1 44330U 98067QF 20226.21873905 .00008911 00000-0 11964-3 0 9994 2 44330 051.6377 049.5521 0005443 211.2777 148.7893 15.58759281065837 NepaliSat-1 1 44331U 98067QG 20225.93827018 .00010503 00000-0 13926-3 0 9997 2 44331 051.6378 050.6816 0005447 213.9623 146.1021 15.58868666065802 Prox-1 1 44339U 19036A 20226.06441378 .00000808 00000-0 14175-3 0 9994 2 44339 23.9997 115.6549 0010614 52.7261 307.4197 14.53066657 60370 Oculus-ASR 1 44348U 19036K 20226.10543684 .00013445 00000-0 19832-3 0 9998 2 44348 028.5174 011.5259 0363507 192.4204 166.7220 15.03435087062335 Armadillo 1 44352U 19036P 20226.74017507 .00017628 00000-0 25723-3 0 9996 2 44352 28.5334 1.5248 0349419 207.7778 150.3744 15.06609671 62433 NO-104 1 44354U 19036R 20226.72807238 .00012694 00000-0 18337-3 0 9995 2 44354 28.5326 4.2373 0360111 203.0462 155.3598 15.04508917 62448 NO-103 1 44355U 19036S 20226.05551609 .00022666 00000-0 31109-3 0 9992 2 44355 028.5329 356.7891 0335294 215.1615 142.6417 15.10808168062470 CP9 1 44360U 19036X 20226.63469247 .00031228 -61140-5 34018-3 0 9992 2 44360 28.5158 334.2123 0312340 252.8514 103.7657 15.19225105 62611 Move-IIb 1 44398U 19038N 20226.12195061 .00001014 00000-0 61825-4 0 9998 2 44398 097.5400 186.6466 0023586 294.4958 065.3813 15.12429924061144 SONATE 1 44400U 19038Q 20226.36959955 .00000466 00000-0 30860-4 0 9993 2 44400 97.5441 186.9023 0023644 291.9173 67.9544 15.12005160 61175 BeeSat 9 1 44412U 19038AC 20226.17201497 .00000744 00000-0 46476-4 0 9995 2 44412 097.5425 186.8119 0021203 298.6476 061.2622 15.12377599060849 JAISAT-1 1 44419U 19038F 20225.90962623 .00000746 00000-0 45996-4 0 9995 2 44419 97.5426 186.8596 0020067 298.6996 61.2218 15.12860991 61137 LightSail-2 1 44420U 19036AC 20226.82895692 .00005078 00000-0 10811-2 0 9997 2 44420 24.0061 105.1450 0009648 56.1623 303.9786 14.56129571 58689 Taurus 1 1 44530U 19059C 20226.83864949 .00001493 00000-0 43505-3 0 9990 2 44530 98.5681 308.4754 0014519 355.0862 5.0181 14.45578579 48636 MO-106 1 44830U 19084G 20226.20612486 .00087307 45797-5 35399-3 0 9996 2 44830 096.9645 096.1352 0018365 023.7448 336.4668 15.86069111039429 TRSI-Sat 1 44831U 19084H 20226.10106424 .00089877 47120-5 37487-3 0 9992 2 44831 96.9637 96.0071 0018965 23.6896 336.5245 15.85460606 39414 MO-105 1 44832U 19084J 20226.76302618 .00113083 65010-5 39484-3 0 9992 2 44832 96.9653 97.0422 0015543 20.1443 340.0441 15.89151795 39534 Duchifat 3 1 44854U 19089C 20226.77683801 .00000301 00000-0 30747-4 0 9993 2 44854 36.9644 119.5724 0007772 176.2870 183.7933 14.99101410 36904 OPS-SAT 1 44878U 19092F 20226.08542958 .00000812 00000-0 46207-4 0 9999 2 44878 097.4703 048.4015 0014742 154.4163 205.7802 15.15570471036118 TO-108 1 44881U 19093C 20226.73841267 .00000015 00000-0 87618-5 0 9998 2 44881 97.9554 302.3954 0014219 206.8626 153.1852 14.81417191 35177 FloripaSat 1 1 44885U 19093G 20226.77970336 .00000182 00000-0 29623-4 0 9992 2 44885 97.9550 302.6355 0013901 217.2861 142.7383 14.82059683 35193 RS-44 1 44909U 19096E 20226.19786308 .00000008 00000-0 -20401-4 0 9995 2 44909 082.5238 317.6116 0218502 093.8786 268.7324 12.79707730029444 SwampSat-2 1 45115U 19071E 20226.34077240 .00008190 00000-0 23897-3 0 9993 2 45115 51.6420 86.8077 0011532 264.2955 95.6713 15.36171590 29861 HO-107 1 45119U 19071J 20226.08799401 .00001334 00000-0 51705-4 0 9991 2 45119 51.6439 89.5917 0011576 257.5302 102.4385 15.33727781 29810 Phoenix 1 45258U 98067RB 20226.78844163 .00003822 00000-0 71743-4 0 9998 2 45258 51.6418 61.6198 0006040 189.9960 170.0910 15.51269099 27378 AztechSat-1 1 45261U 98067RE 20226.77151761 .00007454 00000-0 12648-3 0 9999 2 45261 51.6416 60.7651 0007514 208.6764 151.3814 15.52572354 27403 QARMAN 1 45263U 98067RG 20225.99566506 .00006218 00000-0 10975-3 0 9999 2 45263 51.6419 65.3308 0007084 201.8632 158.2056 15.51793128 27316 Quetzal 1 1 45598U 98067RL 20226.03660011 .00006040 00000-0 11024-3 0 9991 2 45598 051.6425 066.3535 0002371 298.8674 061.2077 15.50896447016572 BY70-2 1 45857U 20042B 20226.79554780 .00000823 00000-0 12615-3 0 9995 2 45857 98.0116 299.4789 0012723 120.6940 239.5523 14.76251791 6155 /EX
